Location: Kellogg
(38.0159°N, 90.0546°W)
Time: 18:14:27
(UTC+00:00)

S-56A Canister/Altair - Pass Details

Date: 21 September 2024
Orbit: 636 x 2487 km, 38.9° (Epoch: 04 October)

Event Time Altitude Azimuth Distance (km) Brightness Sun altitude
Rises 00:33:42 0° 268° (W) 3,058 12.9 -7.6°
Reaches altitude 10° 00:35:47 10° 270° (W) 2,242 11.6 -8.0°
Maximum altitude 00:40:55 83° 358° (N) 914 7.9 -9.0°
Enters shadow 00:47:54 12° 87° (E) 3,021 9.9 -10.4°
Drops below altitude 10° 00:48:21 10° 87° (E) 3,189 - -10.4°
Sets 00:51:50 0° 88° (E) 4,462 - -11.1°
